Zurück zum Katalog

FENGYUN 1C DEB

AktivSSO
NORAD 30810·DEBRIS·🇨🇳 China

Gestartet May 10, 1999 von Taiyuan Satellite Launch Center

Loading…

Nächste Überflüge (nächste 24 Stunden)

TLE

AktuellSource: Space-Track

Epoche: Sep 14, 2026, 03:58 UTC

1 30810U 99025AUU 26257.16558015  .00003736  00000-0  19428-2 0  9995
2 30810  98.6787  62.5824 0172830 357.7940   2.2449 14.07854055982540

Verfolge FENGYUN 1C DEB in Echtzeit mit AllMySat

Download on the App Store